Le nostre stazioni meteo in Italia

Pubblicità
Il mio iltempo24.it
Logan Botanic Garden, Gran Bretagna (99193): Temperatura & dewpoint: 17.08.2017 08:00:00 - 23.08.2017 08:00:00 (BST)Logan Botanic Garden, Gran Bretagna (99193): Temperatura -20cm: 17.08.2017 08:00:00 - 23.08.2017 08:00:00 (BST)Logan Botanic Garden, Gran Bretagna (99193): visibility: 17.08.2017 08:00:00 - 23.08.2017 08:00:00 (BST)Logan Botanic Garden, Gran Bretagna (99193): precipitazioni: 17.08.2017 08:00:00 - 23.08.2017 08:00:00 (BST)
Data & Tempo tt [°C] td [°C] tt -20cm [°C] vv [km] rr [mm]
23.08.2017 08:00:00 15,0 14,6 - - 0,0
23.08.2017 07:00:00 14,5 14,3 - - 0,0
23.08.2017 06:00:00 14,9 14,7 - - 0,0
23.08.2017 05:00:00 15,0 14,8 - - 0,0
23.08.2017 04:00:00 15,6 15,3 - - 0,0
23.08.2017 03:00:00 16,8 16,3 - - 4,2
23.08.2017 02:00:00 16,9 16,2 - - 3,6
23.08.2017 01:00:00 17,2 16,3 - - 0,0
23.08.2017 00:00:00 17,0 16,2 - - 0,4
22.08.2017 23:00:00 17,6 16,3 - - 0,0
22.08.2017 22:00:00 17,3 16,0 - - 0,0
22.08.2017 21:00:00 17,7 16,2 - - 0,0
22.08.2017 20:00:00 17,5 16,4 - - 0,0
22.08.2017 19:00:00 17,7 16,5 - - 0,0
22.08.2017 18:00:00 18,1 16,6 - - 0,0
22.08.2017 17:00:00 17,7 16,6 - - 0,0
22.08.2017 16:00:00 18,0 16,8 - - 0,0
22.08.2017 15:00:00 16,8 16,4 - - 0,0
22.08.2017 14:00:00 16,6 16,3 - - 0,0
22.08.2017 13:00:00 16,7 15,6 - - 0,0
22.08.2017 12:00:00 16,5 15,7 - - 0,0
22.08.2017 11:00:00 15,7 15,3 - - 0,0
22.08.2017 10:00:00 15,5 15,4 15,7 - 0,0
22.08.2017 09:00:00 15,2 15,1 - - 0,0
22.08.2017 08:00:00 14,9 14,8 - - 0,0
22.08.2017 07:00:00 14,7 14,6 - - 0,0
22.08.2017 06:00:00 15,1 15,0 - - 0,2
22.08.2017 05:00:00 15,0 14,9 - - 0,0
22.08.2017 04:00:00 15,2 15,1 - - 0,0
22.08.2017 03:00:00 15,2 15,1 - - 0,0
22.08.2017 02:00:00 15,2 15,1 - - 0,0
22.08.2017 01:00:00 15,1 14,9 - - 0,0
22.08.2017 00:00:00 15,2 15,0 - - 0,0
21.08.2017 23:00:00 15,5 15,3 - - 0,2
21.08.2017 22:00:00 15,2 15,0 - - 0,0
21.08.2017 21:00:00 15,4 15,1 - - 0,0
21.08.2017 20:00:00 15,4 15,1 - - 0,2
21.08.2017 19:00:00 15,4 15,0 - - 1,0
21.08.2017 18:00:00 15,4 14,9 - - 0,8
21.08.2017 17:00:00 15,6 14,9 - - 0,0
21.08.2017 16:00:00 15,7 14,9 - - 0,0
21.08.2017 15:00:00 15,7 14,4 - - 0,0
21.08.2017 14:00:00 16,1 14,5 - - 0,0
21.08.2017 13:00:00 15,5 14,4 - - 0,0
21.08.2017 12:00:00 15,4 14,0 - - 0,0
21.08.2017 11:00:00 15,2 13,9 - - 0,0
21.08.2017 10:00:00 14,9 13,2 15,7 - 0,0
21.08.2017 09:00:00 14,1 12,7 - - 0,0
21.08.2017 08:00:00 13,8 12,5 - - 0,0
21.08.2017 07:00:00 14,0 12,5 - - 0,0
21.08.2017 06:00:00 14,4 13,0 - - 0,0
21.08.2017 05:00:00 13,4 11,8 - - 0,0
21.08.2017 04:00:00 13,1 11,3 - - 0,0
21.08.2017 03:00:00 13,3 11,4 - - 0,0
21.08.2017 02:00:00 14,3 10,9 - - 0,0
21.08.2017 01:00:00 14,2 10,5 - - 0,0
21.08.2017 00:00:00 14,2 10,9 - - 0,0
20.08.2017 23:00:00 14,1 10,9 - - 0,0
20.08.2017 22:00:00 14,0 10,7 - - 0,0
20.08.2017 21:00:00 13,7 10,4 - - 0,0
20.08.2017 20:00:00 13,6 10,2 - - 0,0
20.08.2017 19:00:00 14,3 10,8 - - 0,0
20.08.2017 18:00:00 14,4 11,0 - - 0,0
20.08.2017 17:00:00 14,7 9,3 - - 0,0
20.08.2017 16:00:00 14,8 8,1 - - 0,0
20.08.2017 15:00:00 15,1 9,1 - - 0,0
20.08.2017 14:00:00 14,9 9,5 - - 0,0
20.08.2017 13:00:00 14,6 9,4 - - 0,0
20.08.2017 12:00:00 15,1 10,5 - - 0,0
20.08.2017 11:00:00 14,5 11,0 - - 0,0
20.08.2017 10:00:00 14,2 10,0 15,7 - 0,0
20.08.2017 09:00:00 13,8 11,1 - - 0,0
20.08.2017 08:00:00 12,5 10,2 - - 0,0
20.08.2017 07:00:00 11,6 10,2 - - 0,0
20.08.2017 06:00:00 11,5 9,7 - - 0,0
20.08.2017 05:00:00 11,8 9,7 - - 0,0
20.08.2017 04:00:00 11,7 9,4 - - 0,0
20.08.2017 03:00:00 12,1 9,4 - - 0,0
20.08.2017 02:00:00 12,3 9,8 - - 0,0
20.08.2017 01:00:00 13,0 10,1 - - 0,0
20.08.2017 00:00:00 12,8 9,9 - - 0,0
19.08.2017 23:00:00 12,9 9,8 - - 0,0
19.08.2017 22:00:00 13,3 9,6 - - 0,0
19.08.2017 21:00:00 13,6 10,0 - - 0,0
19.08.2017 20:00:00 14,2 10,7 - - 0,0
19.08.2017 19:00:00 15,2 10,6 - - 0,0
19.08.2017 18:00:00 15,4 10,6 - - 0,0
19.08.2017 17:00:00 15,4 11,6 - - 0,0
19.08.2017 16:00:00 15,7 11,9 - - 0,0
19.08.2017 15:00:00 15,9 12,1 - - 0,2
19.08.2017 14:00:00 16,8 11,0 - - 0,0
19.08.2017 13:00:00 16,4 10,2 - - 0,0
19.08.2017 12:00:00 17,0 11,8 - - 0,0
19.08.2017 11:00:00 14,5 10,3 - - 0,0
19.08.2017 10:00:00 13,6 9,6 15,7 - 0,0
19.08.2017 09:00:00 14,0 9,8 - - 0,0
19.08.2017 08:00:00 12,9 10,2 - - 0,0
19.08.2017 07:00:00 12,4 9,5 - - 0,0
19.08.2017 06:00:00 12,6 10,9 - - 0,0
19.08.2017 05:00:00 12,5 10,6 - - 0,0
19.08.2017 04:00:00 12,1 10,4 - - 0,0
19.08.2017 03:00:00 12,5 10,8 - - 0,0
19.08.2017 02:00:00 12,6 10,4 - - 0,0
19.08.2017 01:00:00 12,6 10,6 - - 0,0
19.08.2017 00:00:00 12,8 10,8 - - 0,0
18.08.2017 23:00:00 13,1 10,9 - - 0,0
18.08.2017 22:00:00 13,1 12,2 - - 1,2
18.08.2017 21:00:00 13,5 12,4 - - 1,8
18.08.2017 20:00:00 13,7 11,4 - - 0,2
18.08.2017 19:00:00 13,9 11,5 - - 0,0
18.08.2017 18:00:00 13,8 11,2 - - 0,8
18.08.2017 17:00:00 13,6 11,3 - - 0,6
18.08.2017 16:00:00 14,0 11,7 - - 2,0
18.08.2017 15:00:00 15,7 10,8 - - 0,0
18.08.2017 14:00:00 14,7 9,6 - - 0,4
18.08.2017 13:00:00 14,4 9,3 - - 0,2
18.08.2017 12:00:00 16,4 10,0 - - 0,0
18.08.2017 11:00:00 15,0 10,7 - - 0,0
18.08.2017 10:00:00 13,2 10,2 15,7 - 0,0
18.08.2017 09:00:00 13,5 10,4 - - 0,0
18.08.2017 08:00:00 12,4 10,5 - - 0,0
18.08.2017 07:00:00 12,0 10,1 - - 0,0
18.08.2017 06:00:00 11,8 10,2 - - 0,2
18.08.2017 05:00:00 12,3 10,5 - - 0,2
18.08.2017 04:00:00 12,8 9,9 - - 0,0
18.08.2017 03:00:00 13,4 10,4 - - 0,0
18.08.2017 02:00:00 14,4 12,9 - - 0,0
18.08.2017 01:00:00 14,6 13,0 - - 0,0
18.08.2017 00:00:00 14,9 13,1 - - 0,0
17.08.2017 23:00:00 15,4 13,1 - - 0,0
17.08.2017 22:00:00 15,4 13,8 - - 0,0
17.08.2017 21:00:00 15,2 13,5 - - 0,0
17.08.2017 20:00:00 15,3 13,5 - - 0,0
17.08.2017 19:00:00 16,5 13,4 - - 0,0
17.08.2017 18:00:00 15,5 14,0 - - 0,0
17.08.2017 17:00:00 15,6 14,0 - - 0,0
17.08.2017 16:00:00 16,8 13,6 - - 0,0
17.08.2017 15:00:00 16,2 13,8 - - 0,0
17.08.2017 14:00:00 17,3 14,0 - - 0,0
17.08.2017 13:00:00 16,8 12,7 - - 0,0
17.08.2017 12:00:00 15,5 12,9 - - 0,0
17.08.2017 11:00:00 14,4 12,5 - - 0,0
17.08.2017 10:00:00 14,8 13,2 15,7 10 0,0
17.08.2017 09:00:00 14,7 13,4 - - 0,0
17.08.2017 08:00:00 14,1 12,8 - - 0,0

tt = Temperatura
td = dewpoint
tt -20cm = Temperatura -20cm
vv = visibility
rr = precipitazioni

Stazioni seguenti

WeatherPro
AMSI
MeteoEarth